When you browse on this site, cookies collect data to enhance your experience and personalize the content and advertising you see.
Visit our Privacy Policy to learn more. By continuing to use the site, you agree to this use of cookies and data.
  • In Hungary
  • List of Countries
  • For 7 days
  • Water Temperature
  • Weather Map
  • News
  • Weather Widgets
  • user-avatar
    Login

    Hourly Weather Debiny

    Today, 22 August, Thursday

    Time Temperature Precipitation Wind Pressure Humidity
    00:00 +14°C° 0 mm 2 mps 767 mmHg 88%
    01:00 +13°C° 0 mm 2 mps 767 mmHg 89%
    02:00 +13°C° 0 mm 2 mps 767 mmHg 89%
    03:00 +13°C° 0 mm 2 mps 767 mmHg 90%
    04:00 +12°C° 0 mm 2 mps 767 mmHg 90%
    05:00 +13°C° 0 mm 2 mps 767 mmHg 87%
    06:00 +15°C° 0 mm 2 mps 768 mmHg 84%
    07:00 +16°C° 0 mm 2 mps 768 mmHg 81%
    08:00 +17°C° 0 mm 2 mps 768 mmHg 76%
    09:00 +19°C° 0 mm 2 mps 768 mmHg 71%
    10:00 +20°C° 0 mm 2 mps 768 mmHg 65%
    11:00 +21°C° 0 mm 2 mps 768 mmHg 62%
    12:00 +22°C° 0 mm 1 mps 768 mmHg 58%
    13:00 +23°C° 0 mm 1 mps 768 mmHg 54%
    14:00 +23°C° 0 mm 1 mps 768 mmHg 54%
    15:00 +23°C° 0 mm 1 mps 767 mmHg 54%
    16:00 +23°C° 0 mm 2 mps 767 mmHg 53%
    17:00 +20°C° 0 mm 2 mps 767 mmHg 59%
    18:00 +18°C° 0 mm 2 mps 767 mmHg 65%
    19:00 +17°C° 0 mm 3 mps 767 mmHg 71%
    20:00 +16°C° 0 mm 3 mps 767 mmHg 75%
    21:00 +16°C° 0 mm 3 mps 767 mmHg 79%
    22:00 +14°C° 0 mm 3 mps 768 mmHg 82%
    23:00 +14°C° 0 mm 3 mps 768 mmHg 81%

    Tomorrow, 23 August, Friday

    Time Temperature Precipitation Wind Pressure Humidity
    00:00 +14°C° 0 mm 3 mps 768 mmHg 80%
    01:00 +14°C° 0 mm 3 mps 768 mmHg 79%
    02:00 +13°C° 0 mm 3 mps 768 mmHg 78%
    03:00 +13°C° 0 mm 3 mps 767 mmHg 78%
    04:00 +14°C° 0 mm 2 mps 767 mmHg 77%
    05:00 +14°C° 0 mm 3 mps 767 mmHg 75%
    06:00 +16°C° 0 mm 3 mps 767 mmHg 73%
    07:00 +17°C° 0 mm 3 mps 767 mmHg 70%
    08:00 +19°C° 0 mm 3 mps 768 mmHg 65%
    09:00 +21°C° 0 mm 2 mps 768 mmHg 59%
    10:00 +23°C° 0 mm 2 mps 768 mmHg 54%
    11:00 +24°C° 0 mm 2 mps 767 mmHg 50%
    12:00 +25°C° 0 mm 1 mps 767 mmHg 47%
    13:00 +25°C° 0 mm 1 mps 767 mmHg 44%
    14:00 +25°C° 0 mm 1 mps 767 mmHg 44%
    15:00 +25°C° 0 mm 1 mps 766 mmHg 44%
    16:00 +25°C° 0 mm 1 mps 766 mmHg 44%
    17:00 +24°C° 0 mm 1 mps 766 mmHg 49%
    18:00 +22°C° 0 mm 1 mps 766 mmHg 55%
    19:00 +20°C° 0 mm 1 mps 766 mmHg 60%
    20:00 +18°C° 0 mm 2 mps 766 mmHg 63%
    21:00 +18°C° 0 mm 2 mps 766 mmHg 66%
    22:00 +17°C° 0 mm 3 mps 766 mmHg 70%
    23:00 +17°C° 0 mm 3 mps 766 mmHg 72%

    Day after tomorrow, 24 August, Saturday

    Time Temperature Precipitation Wind Pressure Humidity
    00:00 +16°C° 0 mm 3 mps 766 mmHg 74%
    01:00 +16°C° 0 mm 3 mps 766 mmHg 76%
    02:00 +16°C° 0 mm 3 mps 766 mmHg 76%
    03:00 +15°C° 0 mm 2 mps 766 mmHg 76%
    04:00 +15°C° 0 mm 2 mps 765 mmHg 77%
    05:00 +16°C° 0 mm 2 mps 765 mmHg 74%
    06:00 +17°C° 0 mm 2 mps 765 mmHg 72%
    07:00 +18°C° 0 mm 2 mps 765 mmHg 70%
    08:00 +20°C° 0 mm 2 mps 765 mmHg 64%
    09:00 +23°C° 0 mm 1 mps 765 mmHg 59%
    10:00 +25°C° 0 mm 1 mps 766 mmHg 54%
    11:00 +25°C° 0 mm 1 mps 765 mmHg 50%
    12:00 +26°C° 0 mm 1 mps 765 mmHg 47%
    13:00 +26°C° 0 mm 1 mps 765 mmHg 44%
    14:00 +26°C° 0 mm 2 mps 765 mmHg 45%
    15:00 +26°C° 0 mm 2 mps 764 mmHg 46%
    16:00 +26°C° 0 mm 2 mps 764 mmHg 48%
    17:00 +24°C° 0 mm 2 mps 764 mmHg 55%
    18:00 +21°C° 0 mm 3 mps 764 mmHg 62%
    19:00 +19°C° 0 mm 3 mps 764 mmHg 69%
    20:00 +18°C° 0 mm 3 mps 764 mmHg 71%
    21:00 +18°C° 0 mm 3 mps 764 mmHg 73%
    22:00 +17°C° 0 mm 3 mps 765 mmHg 76%
    23:00 +16°C° 0 mm 2 mps 765 mmHg 77%

    25 August, Sunday

    Time Temperature Precipitation Wind Pressure Humidity
    00:00 +16°C° 0 mm 2 mps 765 mmHg 77%
    01:00 +16°C° 0 mm 2 mps 765 mmHg 78%
    02:00 +16°C° 0 mm 2 mps 765 mmHg 78%
    03:00 +15°C° 0 mm 2 mps 765 mmHg 78%
    04:00 +15°C° 0 mm 2 mps 765 mmHg 79%
    05:00 +16°C° 0 mm 2 mps 765 mmHg 76%
    06:00 +17°C° 0 mm 2 mps 765 mmHg 73%
    07:00 +19°C° 0 mm 2 mps 765 mmHg 70%
    08:00 +20°C° 0 mm 3 mps 765 mmHg 65%
    09:00 +22°C° 0 mm 3 mps 765 mmHg 60%
    10:00 +25°C° 0 mm 3 mps 765 mmHg 55%
    11:00 +25°C° 0 mm 3 mps 765 mmHg 54%
    12:00 +26°C° 0 mm 3 mps 765 mmHg 52%
    13:00 +26°C° 0 mm 4 mps 765 mmHg 50%
    14:00 +26°C° 0 mm 4 mps 765 mmHg 51%
    15:00 +26°C° 0 mm 4 mps 764 mmHg 52%
    16:00 +26°C° 0 mm 4 mps 764 mmHg 53%
    17:00 +23°C° 0 mm 4 mps 764 mmHg 60%
    18:00 +21°C° 0 mm 3 mps 764 mmHg 67%
    19:00 +20°C° 0 mm 3 mps 764 mmHg 74%
    20:00 +19°C° 0 mm 3 mps 764 mmHg 75%
    21:00 +18°C° 0 mm 3 mps 765 mmHg 76%
    22:00 +17°C° 0 mm 3 mps 765 mmHg 77%
    23:00 +17°C° 0 mm 3 mps 765 mmHg 78%

    26 August, Monday

    Time Temperature Precipitation Wind Pressure Humidity
    00:00 +16°C° 0 mm 3 mps 765 mmHg 78%
    01:00 +16°C° 0 mm 3 mps 765 mmHg 78%
    02:00 +16°C° 0 mm 3 mps 764 mmHg 80%
    03:00 +14°C° 0 mm 3 mps 764 mmHg 81%
    04:00 +14°C° 0 mm 3 mps 764 mmHg 83%
    05:00 +16°C° 0 mm 3 mps 764 mmHg 80%
    06:00 +17°C° 0 mm 3 mps 764 mmHg 76%
    07:00 +19°C° 0 mm 3 mps 765 mmHg 73%
    08:00 +20°C° 0 mm 3 mps 765 mmHg 67%
    09:00 +22°C° 0 mm 4 mps 765 mmHg 61%
    10:00 +25°C° 0 mm 4 mps 765 mmHg 56%
    11:00 +26°C° 0 mm 4 mps 764 mmHg 53%
    12:00 +27°C° 0 mm 3 mps 764 mmHg 50%
    13:00 +27°C° 0 mm 3 mps 764 mmHg 48%
    14:00 +27°C° 0 mm 3 mps 764 mmHg 49%
    15:00 +27°C° 0 mm 3 mps 763 mmHg 51%
    16:00 +27°C° 0 mm 3 mps 763 mmHg 53%
    17:00 +26°C° 0 mm 3 mps 763 mmHg 59%
    18:00 +24°C° 0 mm 3 mps 763 mmHg 65%
    19:00 +21°C° 0 mm 3 mps 763 mmHg 72%
    20:00 +21°C° 0 mm 3 mps 763 mmHg 72%
    21:00 +20°C° 0 mm 3 mps 763 mmHg 72%
    22:00 +19°C° 0 mm 3 mps 764 mmHg 72%
    23:00 +19°C° 0 mm 3 mps 763 mmHg 73%

    27 August, Tuesday

    Time Temperature Precipitation Wind Pressure Humidity
    00:00 +18°C° 0 mm 3 mps 763 mmHg 75%
    01:00 +17°C° 0 mm 3 mps 763 mmHg 76%
    02:00 +17°C° 0 mm 3 mps 763 mmHg 79%
    03:00 +17°C° 0 mm 3 mps 763 mmHg 82%
    04:00 +17°C° 0 mm 3 mps 763 mmHg 85%
    05:00 +18°C° 0 mm 3 mps 763 mmHg 82%
    06:00 +19°C° 0 mm 3 mps 763 mmHg 78%
    07:00 +20°C° 0 mm 4 mps 763 mmHg 75%
    08:00 +22°C° 0 mm 4 mps 763 mmHg 70%
    09:00 +25°C° 0 mm 4 mps 763 mmHg 64%
    10:00 +26°C° 0 mm 4 mps 763 mmHg 59%
    11:00 +27°C° 0 mm 4 mps 763 mmHg 57%
    12:00 +28°C° 0 mm 4 mps 762 mmHg 54%
    13:00 +29°C° 0 mm 4 mps 762 mmHg 52%
    14:00 +29°C° 0 mm 4 mps 762 mmHg 53%
    15:00 +28°C° 0 mm 3 mps 761 mmHg 54%
    16:00 +28°C° 0 mm 3 mps 761 mmHg 55%
    17:00 +27°C° 0 mm 3 mps 761 mmHg 60%
    18:00 +25°C° 0 mm 3 mps 760 mmHg 65%
    19:00 +24°C° 0 mm 3 mps 760 mmHg 70%
    20:00 +22°C° 0 mm 3 mps 760 mmHg 71%
    21:00 +21°C° 0 mm 4 mps 760 mmHg 72%
    22:00 +21°C° 0 mm 4 mps 760 mmHg 73%
    23:00 +20°C° 0 mm 4 mps 760 mmHg 75%
    Show more